This is the latest recevied weather packets stored in our database for station/object W4OTS. If no packets are shown the sender has not sent any weather packets the latest 10 day(s).
| Time | Temp. | Humidity | Pressure | Rain* | Wind** | Luminosity | Snow |
|---|---|---|---|---|---|---|---|
| 1777482175 | 22.22° C | 83% | 1013.6 hPa | 0 mm | - | 217 W/m² | - |
| 1777481873 | 22.78° C | 82% | 1013.4 hPa | 0 mm | - | 255 W/m² | - |
| 1777481570 | 21.67° C | 84% | 1013.5 hPa | 0 mm | - | 867 W/m² | - |
| 1777481267 | 21.67° C | 85% | 1013.8 hPa | 0 mm | - | 830 W/m² | - |
| 1777480963 | 21.11° C | 87% | 1013.8 hPa | 0 mm | - | 274 W/m² | - |
| 1777480660 | 21.11° C | 87% | 1013.9 hPa | 0 mm | - | 293 W/m² | - |
| 1777480357 | 21.11° C | 86% | 1014.2 hPa | 0 mm | - | 735 W/m² | - |
| 1777480052 | 21.11° C | 87% | 1014.2 hPa | 0 mm | - | 500 W/m² | - |
| 1777479749 | 20° C | 88% | 1014.5 hPa | 0 mm | - | 474 W/m² | - |
| 1777479447 | 19.44° C | 92% | 1014.6 hPa | 0 mm | - | 577 W/m² | - |
| 1777479143 | 19.44° C | 93% | 1014.6 hPa | 0 mm | - | 345 W/m² | - |
| 1777478840 | 18.89° C | 95% | 1014.7 hPa | 0 mm | - | 216 W/m² | - |
| 1777478536 | 18.33° C | 95% | 1014.6 hPa | 0 mm | - | 190 W/m² | - |
| 1777478234 | 18.33° C | 95% | 1014.5 hPa | 0 mm | - | 169 W/m² | - |
| 1777477930 | 18.33° C | 96% | 1014.6 hPa | 0 mm | - | 222 W/m² | - |
| 1777477626 | 18.33° C | 98% | 1015 hPa | 0 mm | - | 221 W/m² | - |
| 1777477322 | 17.78° C | 98% | 1015 hPa | 0 mm | - | 148 W/m² | - |
| 1777477019 | 17.78° C | 98% | 1014.9 hPa | 0 mm | - | 125 W/m² | - |
| 1777476717 | 17.22° C | 99% | 1014.7 hPa | 0 mm | - | 172 W/m² | - |
| 1777476413 | 16.67° C | 99% | 1015 hPa | 0 mm | - | 134 W/m² | - |
| 1777476110 | 16.67° C | 99% | 1015.2 hPa | 0 mm | - | 85 W/m² | - |
| 1777475805 | 16.67° C | 99% | 1015.1 hPa | 0 mm | - | 68 W/m² | - |
| 1777475502 | 16.67° C | 99% | 1015.1 hPa | 0 mm | - | 77 W/m² | - |
| 1777475198 | 16.67° C | 99% | 1015.1 hPa | 0 mm | - | 96 W/m² | - |
| 1777474894 | 16.67° C | 99% | 1015.1 hPa | 0 mm | - | 111 W/m² | - |
* Rain latest hour (hover to see other rain measurements)
** Current wind speed in m/s (hover to see current wind gust speed)